When you browse on this site, cookies collect data to enhance your experience and personalize the content and advertising you see.
Visit our Privacy Policy to learn more. By continuing to use the site, you agree to this use of cookies and data.
  • en Suisse
  • Liste des pays
  • À 7 jours
  • Température de l'eau
  • Carte satellitaire
  • Carte météo
  • Widgets météo
  • user-avatar
    Se connecter

    Météo par heure à Ciudad Bolívar

    Ce jour, 17 Juillet, Mercredi

    Heure Température Précipitation Vent Pression Humidité
    00:00 +28°C° 0 mm 4 m/s 754 mmHg 77%
    01:00 +27°C° 0 mm 3 m/s 753 mmHg 79%
    02:00 +27°C° 0 mm 3 m/s 753 mmHg 80%
    03:00 +26°C° 0 mm 3 m/s 753 mmHg 82%
    04:00 +26°C° 0 mm 2 m/s 753 mmHg 85%
    05:00 +26°C° 0 mm 2 m/s 753 mmHg 87%
    06:00 +26°C° 0 mm 2 m/s 753 mmHg 84%
    07:00 +27°C° 0 mm 2 m/s 754 mmHg 82%
    08:00 +28°C° 0 mm 3 m/s 754 mmHg 79%
    09:00 +29°C° 0 mm 3 m/s 754 mmHg 72%
    10:00 +31°C° 0 mm 3 m/s 754 mmHg 65%
    11:00 +34°C° 0 mm 3 m/s 754 mmHg 58%
    12:00 +34°C° 0.1 mm 3 m/s 753 mmHg 55%
    13:00 +35°C° 0.1 mm 3 m/s 752 mmHg 52%
    14:00 +36°C° 0.1 mm 3 m/s 752 mmHg 49%
    15:00 +36°C° 0 mm 2 m/s 751 mmHg 49%
    16:00 +36°C° 0 mm 2 m/s 751 mmHg 49%
    17:00 +35°C° 0 mm 2 m/s 751 mmHg 49%
    18:00 +34°C° 0.8 mm 2 m/s 751 mmHg 56%
    19:00 +31°C° 0.8 mm 3 m/s 752 mmHg 64%
    20:00 +30°C° 0.8 mm 3 m/s 752 mmHg 71%
    21:00 +29°C° 1 mm 3 m/s 753 mmHg 75%
    22:00 +28°C° 1 mm 3 m/s 753 mmHg 79%
    23:00 +28°C° 1 mm 3 m/s 754 mmHg 83%

    Demain, 18 Juillet, Jeudi

    Heure Température Précipitation Vent Pression Humidité
    00:00 +27°C° 0.2 mm 3 m/s 754 mmHg 85%
    01:00 +27°C° 0.2 mm 3 m/s 753 mmHg 87%
    02:00 +27°C° 0.2 mm 3 m/s 753 mmHg 89%
    03:00 +27°C° 0.4 mm 3 m/s 753 mmHg 90%
    04:00 +26°C° 0.4 mm 2 m/s 753 mmHg 91%
    05:00 +26°C° 0.4 mm 2 m/s 753 mmHg 92%
    06:00 +27°C° 0.2 mm 3 m/s 754 mmHg 90%
    07:00 +27°C° 0.2 mm 3 m/s 754 mmHg 87%
    08:00 +28°C° 0.2 mm 3 m/s 755 mmHg 84%
    09:00 +29°C° 1.5 mm 3 m/s 755 mmHg 78%
    10:00 +32°C° 1.5 mm 4 m/s 754 mmHg 72%
    11:00 +33°C° 1.5 mm 4 m/s 754 mmHg 66%
    12:00 +34°C° 0.2 mm 3 m/s 754 mmHg 60%
    13:00 +35°C° 0.2 mm 3 m/s 753 mmHg 54%
    14:00 +36°C° 0.2 mm 3 m/s 752 mmHg 48%
    15:00 +36°C° 0 mm 2 m/s 751 mmHg 48%
    16:00 +36°C° 0 mm 2 m/s 751 mmHg 49%
    17:00 +36°C° 0 mm 2 m/s 750 mmHg 49%
    18:00 +35°C° 0 mm 2 m/s 751 mmHg 53%
    19:00 +34°C° 0 mm 2 m/s 752 mmHg 57%
    20:00 +31°C° 0 mm 2 m/s 752 mmHg 61%
    21:00 +30°C° 0.4 mm 3 m/s 753 mmHg 67%
    22:00 +29°C° 0.4 mm 3 m/s 753 mmHg 72%
    23:00 +28°C° 0.4 mm 4 m/s 754 mmHg 78%

    Après-demain, 19 Juillet, Vendredi

    Heure Température Précipitation Vent Pression Humidité
    00:00 +28°C° 0 mm 3 m/s 753 mmHg 81%
    01:00 +27°C° 0 mm 3 m/s 753 mmHg 83%
    02:00 +27°C° 0 mm 3 m/s 753 mmHg 86%
    03:00 +27°C° 0 mm 3 m/s 753 mmHg 87%
    04:00 +26°C° 0 mm 2 m/s 753 mmHg 89%
    05:00 +26°C° 0 mm 2 m/s 753 mmHg 90%
    06:00 +27°C° 0 mm 3 m/s 753 mmHg 87%
    07:00 +27°C° 0 mm 3 m/s 754 mmHg 84%
    08:00 +28°C° 0 mm 3 m/s 754 mmHg 81%
    09:00 +30°C° 0 mm 3 m/s 754 mmHg 72%
    10:00 +32°C° 0 mm 4 m/s 754 mmHg 63%
    11:00 +34°C° 0 mm 4 m/s 754 mmHg 54%
    12:00 +35°C° 0 mm 4 m/s 753 mmHg 50%
    13:00 +36°C° 0 mm 3 m/s 752 mmHg 45%
    14:00 +37°C° 0 mm 3 m/s 751 mmHg 40%
    15:00 +37°C° 0 mm 3 m/s 751 mmHg 43%
    16:00 +36°C° 0 mm 3 m/s 750 mmHg 46%
    17:00 +36°C° 0 mm 2 m/s 750 mmHg 49%
    18:00 +34°C° 0.3 mm 3 m/s 751 mmHg 56%
    19:00 +32°C° 0.3 mm 4 m/s 751 mmHg 64%
    20:00 +30°C° 0.3 mm 5 m/s 752 mmHg 71%
    21:00 +29°C° 0 mm 5 m/s 752 mmHg 74%
    22:00 +28°C° 0 mm 4 m/s 753 mmHg 76%
    23:00 +28°C° 0 mm 3 m/s 753 mmHg 79%

    20 Juillet, Samedi

    Heure Température Précipitation Vent Pression Humidité
    00:00 +27°C° 0 mm 3 m/s 753 mmHg 81%
    01:00 +27°C° 0 mm 3 m/s 753 mmHg 84%
    02:00 +27°C° 0 mm 3 m/s 752 mmHg 86%
    03:00 +26°C° 0 mm 3 m/s 752 mmHg 87%
    04:00 +26°C° 0 mm 2 m/s 752 mmHg 88%
    05:00 +26°C° 0 mm 2 m/s 752 mmHg 90%
    06:00 +27°C° 0 mm 3 m/s 753 mmHg 86%
    07:00 +27°C° 0 mm 3 m/s 753 mmHg 82%
    08:00 +28°C° 0 mm 4 m/s 754 mmHg 78%
    09:00 +30°C° 0 mm 4 m/s 753 mmHg 71%
    10:00 +32°C° 0 mm 4 m/s 753 mmHg 64%
    11:00 +34°C° 0 mm 4 m/s 753 mmHg 57%
    12:00 +34°C° 0 mm 4 m/s 752 mmHg 55%
    13:00 +35°C° 0 mm 3 m/s 751 mmHg 52%
    14:00 +35°C° 0 mm 3 m/s 751 mmHg 50%
    15:00 +35°C° 0 mm 3 m/s 750 mmHg 50%
    16:00 +35°C° 0 mm 4 m/s 750 mmHg 50%
    17:00 +35°C° 0 mm 4 m/s 749 mmHg 51%
    18:00 +34°C° 0.1 mm 4 m/s 750 mmHg 56%
    19:00 +32°C° 0.1 mm 4 m/s 750 mmHg 61%
    20:00 +30°C° 0.1 mm 5 m/s 751 mmHg 66%
    21:00 +29°C° 0 mm 5 m/s 752 mmHg 69%
    22:00 +29°C° 0 mm 4 m/s 752 mmHg 72%
    23:00 +28°C° 0 mm 4 m/s 753 mmHg 76%

    21 Juillet, Dimanche

    Heure Température Précipitation Vent Pression Humidité
    00:00 +27°C° 0 mm 4 m/s 752 mmHg 79%
    01:00 +27°C° 0 mm 4 m/s 752 mmHg 81%
    02:00 +27°C° 0 mm 4 m/s 751 mmHg 84%
    03:00 +26°C° 0 mm 4 m/s 751 mmHg 86%
    04:00 +26°C° 0 mm 3 m/s 751 mmHg 87%
    05:00 +26°C° 0 mm 3 m/s 751 mmHg 89%
    06:00 +26°C° 0 mm 3 m/s 752 mmHg 86%
    07:00 +27°C° 0 mm 3 m/s 753 mmHg 84%
    08:00 +27°C° 0 mm 4 m/s 753 mmHg 82%
    09:00 +28°C° 0 mm 3 m/s 753 mmHg 76%
    10:00 +30°C° 0 mm 3 m/s 753 mmHg 71%
    11:00 +31°C° 0 mm 3 m/s 753 mmHg 65%
    12:00 +33°C° 0 mm 3 m/s 752 mmHg 61%
    13:00 +34°C° 0 mm 2 m/s 751 mmHg 57%
    14:00 +34°C° 0 mm 2 m/s 750 mmHg 53%
    15:00 +34°C° 0.2 mm 2 m/s 750 mmHg 55%
    16:00 +34°C° 0.2 mm 3 m/s 750 mmHg 57%
    17:00 +34°C° 0.2 mm 3 m/s 749 mmHg 58%
    18:00 +32°C° 1.1 mm 4 m/s 750 mmHg 64%
    19:00 +30°C° 1.1 mm 4 m/s 750 mmHg 70%
    20:00 +29°C° 1.1 mm 5 m/s 751 mmHg 76%
    21:00 +28°C° 0 mm 5 m/s 752 mmHg 78%
    22:00 +28°C° 0 mm 5 m/s 752 mmHg 80%
    23:00 +27°C° 0 mm 5 m/s 753 mmHg 83%

    22 Juillet, Lundi

    Heure Température Précipitation Vent Pression Humidité
    00:00 +27°C° 0 mm 4 m/s 752 mmHg 83%
    01:00 +27°C° 0 mm 4 m/s 752 mmHg 84%
    02:00 +27°C° 0 mm 4 m/s 752 mmHg 85%
    03:00 +26°C° 0 mm 3 m/s 752 mmHg 85%
    04:00 +26°C° 0 mm 3 m/s 752 mmHg 85%
    05:00 +26°C° 0 mm 3 m/s 752 mmHg 85%
    06:00 +27°C° 0 mm 3 m/s 752 mmHg 82%
    07:00 +27°C° 0 mm 4 m/s 753 mmHg 80%
    08:00 +28°C° 0 mm 4 m/s 753 mmHg 77%
    09:00 +29°C° 0 mm 3 m/s 753 mmHg 72%
    10:00 +30°C° 0 mm 3 m/s 753 mmHg 68%
    11:00 +31°C° 0 mm 3 m/s 753 mmHg 63%
    12:00 +33°C° 0.9 mm 3 m/s 752 mmHg 62%
    13:00 +34°C° 0.9 mm 3 m/s 752 mmHg 60%
    14:00 +34°C° 0.9 mm 4 m/s 751 mmHg 58%
    15:00 +34°C° 0.8 mm 4 m/s 751 mmHg 60%
    16:00 +33°C° 0.8 mm 4 m/s 751 mmHg 62%
    17:00 +33°C° 0.8 mm 5 m/s 750 mmHg 63%
    18:00 +32°C° 0.5 mm 5 m/s 751 mmHg 69%
    19:00 +29°C° 0.5 mm 5 m/s 752 mmHg 74%
    20:00 +28°C° 0.5 mm 5 m/s 752 mmHg 79%
    21:00 +27°C° 0.1 mm 4 m/s 753 mmHg 81%
    22:00 +27°C° 0.1 mm 4 m/s 753 mmHg 82%
    23:00 +27°C° 0.1 mm 3 m/s 754 mmHg 83%
    Voir plus